TimePST,TemperatureF,Dew PointF,Humidity,Sea Level PressureIn,VisibilityMPH,Wind Direction,Wind SpeedMPH,Gust SpeedMPH,PrecipitationIn,Events,Conditions,WindDirDegrees,DateUTC
12:01 AM,33.8,32.0,93,30.24,8.0,ENE,5.8,-,N/A,,Scattered Clouds,70,2013-01-21 08:01:00
12:10 AM,33.8,33.8,100,30.24,7.0,ENE,6.9,-,N/A,,Mostly Cloudy,70,2013-01-21 08:10:00
12:53 AM,34.0,33.1,96,30.25,7.0,ENE,11.5,-,N/A,,Overcast,70,2013-01-21 08:53:00
1:53 AM,34.0,33.1,96,30.24,8.0,ENE,10.4,-,N/A,,Overcast,60,2013-01-21 09:53:00
2:53 AM,35.1,34.0,96,30.25,8.0,ENE,9.2,-,N/A,,Overcast,60,2013-01-21 10:53:00
3:53 AM,35.1,35.1,100,30.23,7.0,ENE,9.2,-,N/A,,Overcast,60,2013-01-21 11:53:00
4:53 AM,35.1,34.0,96,30.20,4.0,ENE,10.4,-,N/A,,Overcast,70,2013-01-21 12:53:00
5:01 AM,33.8,33.8,100,30.19,3.0,ENE,10.4,-,N/A,,Overcast,70,2013-01-21 13:01:00
5:53 AM,33.1,33.1,100,30.18,3.0,ENE,12.7,-,N/A,,Overcast,70,2013-01-21 13:53:00
6:49 AM,33.8,32.0,93,30.16,6.0,ENE,12.7,-,N/A,,Overcast,70,2013-01-21 14:49:00
6:53 AM,33.1,32.0,96,30.18,6.0,ENE,12.7,-,N/A,,Overcast,70,2013-01-21 14:53:00
7:53 AM,32.0,32.0,100,30.17,6.0,ENE,13.8,-,N/A,,Mostly Cloudy,70,2013-01-21 15:53:00
8:00 AM,32.0,32.0,100,30.17,5.0,ENE,15.0,-,N/A,,Scattered Clouds,70,2013-01-21 16:00:00
8:06 AM,32.0,32.0,100,30.17,5.0,ENE,13.8,-,N/A,,Mostly Cloudy,70,2013-01-21 16:06:00
8:53 AM,32.0,32.0,100,30.19,5.0,ENE,12.7,-,N/A,,Overcast,70,2013-01-21 16:53:00
9:53 AM,33.1,32.0,96,30.21,5.0,East,12.7,-,N/A,,Overcast,80,2013-01-21 17:53:00
10:53 AM,34.0,33.1,96,30.21,6.0,East,15.0,-,N/A,,Scattered Clouds,80,2013-01-21 18:53:00
11:53 AM,37.0,34.0,89,30.19,9.0,East,16.1,-,N/A,,Clear,80,2013-01-21 19:53:00
12:53 PM,39.9,35.1,83,30.17,9.0,East,12.7,-,N/A,,Clear,80,2013-01-21 20:53:00
1:53 PM,42.1,36.0,79,30.14,10.0,East,12.7,-,N/A,,Clear,90,2013-01-21 21:53:00
2:53 PM,44.1,36.0,73,30.13,10.0,East,12.7,-,N/A,,Clear,90,2013-01-21 22:53:00
3:53 PM,43.0,36.0,76,30.12,10.0,East,12.7,-,N/A,,Clear,80,2013-01-21 23:53:00
4:53 PM,39.0,34.0,82,30.13,10.0,ENE,6.9,-,N/A,,Clear,60,2013-01-22 00:53:00
5:53 PM,37.0,33.1,86,30.14,10.0,NE,9.2,-,N/A,,Clear,50,2013-01-22 01:53:00
6:53 PM,35.1,33.1,92,30.14,10.0,NE,11.5,-,N/A,,Clear,50,2013-01-22 02:53:00
7:53 PM,34.0,32.0,92,30.13,8.0,ENE,10.4,-,N/A,,Partly Cloudy,60,2013-01-22 03:53:00
8:27 PM,33.8,32.0,93,30.12,8.0,ENE,11.5,-,N/A,,Mostly Cloudy,60,2013-01-22 04:27:00
8:53 PM,34.0,32.0,92,30.13,7.0,ENE,9.2,-,N/A,,Overcast,60,2013-01-22 04:53:00
9:32 PM,33.8,32.0,93,30.11,6.0,ENE,11.5,-,N/A,,Overcast,60,2013-01-22 05:32:00
9:53 PM,33.1,32.0,96,30.12,7.0,ENE,12.7,17.3,N/A,,Mostly Cloudy,70,2013-01-22 05:53:00
10:34 PM,33.8,32.0,93,30.11,9.0,ENE,9.2,-,N/A,,Scattered Clouds,70,2013-01-22 06:34:00
10:53 PM,33.1,32.0,96,30.12,9.0,ENE,11.5,-,N/A,,Partly Cloudy,60,2013-01-22 06:53:00
11:07 PM,32.0,32.0,100,30.11,8.0,ENE,8.1,-,N/A,,Mostly Cloudy,60,2013-01-22 07:07:00
11:53 PM,32.0,30.9,96,30.12,9.0,ENE,9.2,-,N/A,,Overcast,60,2013-01-22 07:53:00